Theta_e
300 300 300 299 301 303 304 305 305 305 305 305 304 303 302 305 306 307 308 311 313 307 308 308 309 309 309 305 306 306 309 312 313 313 312 308 310 307 310 312 312 310 310 308 308
300 299 299 299 300 303 303 304 304 305 305 305 306 306 303 306 305 306 307 307 307 307 308 307 306 305 303 304 303 306 308 311 307 307 307 308 310 309 311 310 309 309 306 306 307
300 300 299 300 301 302 303 303 303 304 305 305 305 306 306 307 302 305 307 307 307 307 307 307 306 304 303 303 302 304 305 305 306 305 305 308 309 309 308 310 309 306 305 304 307
300 300 299 299 302 303 303 303 303 303 304 304 306 307 306 307 303 307 307 308 308 307 307 306 302 303 304 305 303 306 305 305 305 305 308 308 309 308 308 310 306 304 304 303 304
299 300 300 299 301 303 304 304 304 303 303 304 306 307 305 303 306 306 307 309 309 308 307 305 304 303 304 305 304 306 306 305 304 305 305 306 307 308 309 306 304 304 301 300 302
299 299 300 300 300 301 301 304 303 303 303 305 307 306 305 304 306 306 307 309 309 308 307 307 306 303 303 305 305 305 305 305 304 304 305 305 304 304 303 302 300 300 300 300 300
300 299 300 300 300 300 301 304 303 303 304 306 306 306 304 305 306 306 308 309 309 309 307 307 307 306 304 306 305 304 306 305 304 304 305 304 305 304 301 300 299 298 298 298 299
302 300 299 300 300 301 303 303 303 304 304 306 306 305 305 305 306 307 308 309 309 309 309 307 307 304 306 306 303 304 303 306 305 304 305 305 306 304 300 300 299 298 296 297 297
304 302 299 300 301 301 301 302 304 305 306 306 305 302 304 305 305 305 307 308 308 306 306 306 305 303 303 303 303 303 307 307 305 304 304 305 307 304 300 300 299 297 296 296 296
305 303 300 300 300 301 300 303 304 304 305 305 304 302 303 304 305 304 307 307 307 306 304 303 302 303 302 300 304 308 307 306 305 304 304 305 305 303 301 300 299 297 296 296 296
306 304 300 300 300 302 302 300 303 301 303 302 303 303 303 304 304 304 306 306 305 303 304 303 305 307 306 304 305 306 307 306 303 304 305 306 304 303 302 300 299 299 297 296 296
307 306 300 300 301 303 304 305 302 301 301 301 302 302 303 304 303 302 306 304 304 305 303 303 308 306 305 305 305 306 306 305 303 303 305 305 304 303 302 301 300 300 298 297 296
308 307 300 300 301 303 304 304 303 301 300 300 302 302 302 303 304 303 304 304 304 304 303 303 307 305 305 305 307 307 307 307 306 304 304 302 302 304 303 301 300 299 298 297 296
308 307 300 302 302 302 304 303 304 304 305 302 301 301 303 303 304 304 302 303 303 305 304 304 303 305 305 306 305 308 306 306 306 304 307 302 305 302 303 302 301 299 298 296 295
309 308 300 303 303 302 303 303 302 305 317 302 301 302 302 302 302 304 301 302 304 305 300 304 304 303 305 306 305 306 305 306 306 306 304 306 300 302 302 304 303 300 298 296 295
309 308 300 302 301 302 303 303 306 314 316 301 301 302 302 302 304 303 300 300 301 301 302 303 303 304 304 304 305 305 306 300 300 302 298 306 302 303 302 305 302 301 299 297 294
309 308 300 302 300 302 303 306 314 321 303 303 302 302 302 303 304 303 301 300 300 299 294 298 302 300 303 303 302 301 298 291 293 293 299 301 302 302 301 301 302 301 299 297 294
309 308 300 301 301 302 305 308 313 312 306 300 302 301 301 302 303 305 303 300 300 295 292 295 297 301 301 304 304 304 300 295 292 298 297 301 305 306 302 301 300 299 298 296 294
308 302 300 300 300 303 305 313 316 312 304 302 301 302 301 302 303 303 303 300 299 297 296 294 296 300 301 301 300 301 300 301 297 294 298 299 299 299 302 302 300 300 299 297 294
307 304 302 299 300 304 305 312 309 303 301 301 308 303 303 301 303 304 303 302 301 300 296 294 296 297 300 302 302 302 301 296 293 291 292 295 296 300 304 304 301 300 299 297 295
307 305 303 299 302 302 305 307 307 301 301 302 306 302 300 301 302 303 303 303 300 300 297 293 294 296 299 297 301 303 300 302 300 299 293 290 296 294 302 302 301 298 297 296 295
305 305 301 300 303 290 301 303 300 301 300 300 300 302 302 300 301 301 302 302 299 299 301 297 295 295 296 296 298 300 303 301 294 289 294 296 297 297 298 298 298 298 297 296 295
301 300 300 301 304 296 298 301 300 301 301 299 301 301 300 301 303 301 301 299 299 300 301 299 295 296 300 296 297 300 301 301 297 295 296 293 295 294 295 297 297 297 296 295 293
302 304 297 296 297 303 302 303 303 300 301 299 300 301 301 301 300 301 302 300 299 301 302 297 290 297 303 301 297 297 298 301 297 289 292 294 292 297 290 290 292 291 290 289 288
302 304 299 303 298 301 304 304 304 304 302 300 300 301 302 303 299 302 301 300 300 303 299 298 294 289 292 294 298 298 297 298 295 296 293 291 291 294 294 292 292 289 291 292 291
303 303 297 297 300 302 304 303 305 304 303 302 301 301 300 302 303 303 301 300 301 300 299 298 297 292 293 290 293 295 296 296 294 290 293 290 296 297 297 296 292 292 292 292 292
305 303 309 304 302 307 310 306 306 305 302 303 301 302 301 300 298 298 298 298 299 300 299 298 295 293 299 287 287 299 293 296 296 295 295 296 298 297 297 298 297 298 296 294 294
Wind_Speed
9 10 11 11 10 10 9 9 11 11 10 11 10 7 4 9 19 22 15 15 17 17 10 4 8 9 10 5 7 2 5 2 1 3 5 4 4 5 1 4 4 4 4 12 24
8 10 11 11 9 7 6 7 10 11 10 10 10 9 5 6 7 17 19 20 16 12 6 11 6 10 5 5 4 5 4 2 1 2 3 3 4 4 3 6 5 3 9 19 19
8 9 9 10 9 8 5 5 8 10 9 9 10 8 6 2 4 7 23 20 15 8 5 5 8 5 6 4 6 3 3 2 3 3 2 3 3 3 4 5 2 7 11 15 14
7 8 9 9 9 6 6 5 7 7 8 11 10 4 7 3 3 11 19 17 14 7 2 8 7 4 5 5 4 6 4 2 4 6 2 2 2 3 5 1 3 5 8 10 11
8 8 9 9 9 8 6 6 6 7 6 10 8 4 3 7 3 14 15 15 15 16 12 4 7 2 5 4 3 5 1 4 4 6 4 5 4 3 2 2 5 6 8 7 10
8 9 10 9 8 7 6 7 4 6 5 6 11 4 2 6 6 17 12 13 16 13 21 13 4 2 6 3 4 3 4 3 5 4 3 3 2 2 1 2 5 6 6 7 8
7 9 11 10 8 9 6 6 3 4 4 5 5 3 9 4 8 15 9 12 12 13 7 12 4 4 3 3 2 2 3 4 8 7 2 4 2 3 2 2 5 7 6 7 10
7 9 10 12 9 7 5 5 4 3 3 4 4 3 3 4 6 15 10 7 10 11 12 10 7 7 5 2 6 5 5 4 3 9 2 2 5 2 2 3 6 8 7 7 8
6 9 9 11 8 5 1 6 3 4 4 2 2 3 2 4 5 13 12 6 6 9 14 8 7 5 6 3 4 7 2 4 7 3 5 4 3 2 1 2 5 7 7 7 7
7 8 10 11 8 6 1 6 9 3 3 3 4 4 5 3 5 11 7 8 4 4 6 10 6 5 5 4 2 1 3 4 4 5 6 4 4 3 1 1 5 6 6 7 7
7 6 9 11 8 6 3 3 3 5 14 3 1 3 3 7 4 10 9 5 4 8 5 6 8 4 4 6 4 5 3 3 5 3 6 4 5 7 3 3 5 6 6 6 7
6 8 8 10 5 7 2 4 4 5 7 3 1 2 2 3 3 12 11 3 6 4 4 6 4 2 1 4 5 4 3 3 7 5 3 5 10 7 3 4 4 4 7 6 6
6 8 7 8 3 4 7 8 8 6 5 2 1 2 3 4 2 7 7 2 5 7 6 5 0 3 3 4 2 3 4 3 4 7 3 7 6 4 3 3 3 5 5 5 6
6 7 7 5 1 3 4 4 4 3 5 2 2 4 3 1 5 3 6 3 6 4 2 4 4 2 2 2 3 3 3 3 4 6 3 5 4 5 4 7 5 7 6 7 7
6 6 5 4 4 1 6 3 1 2 3 1 2 1 2 4 2 6 7 6 4 4 4 1 5 4 2 3 4 3 1 2 2 3 3 2 3 6 4 5 5 6 7 6 6
8 4 3 2 3 5 7 3 1 6 4 2 2 2 2 5 2 3 4 8 3 4 5 2 1 1 2 2 4 3 3 4 3 2 3 3 3 5 3 4 5 4 5 6 5
8 3 1 1 2 6 6 4 5 3 2 2 1 2 3 3 3 4 4 5 1 4 4 5 2 3 1 2 3 3 4 4 6 4 4 2 2 8 5 5 5 5 6 6 5
9 4 2 3 7 6 3 5 2 1 4 0 1 2 2 2 2 2 3 1 1 5 4 4 6 3 4 2 2 4 4 5 4 3 5 2 4 4 4 6 6 6 6 5 5
9 5 3 4 6 5 4 3 7 5 5 7 2 2 2 1 1 2 1 4 3 4 5 4 4 3 2 2 3 3 5 3 6 2 2 4 7 7 4 8 7 8 6 8 6
8 4 4 7 6 1 4 4 3 3 6 2 5 2 4 3 2 1 2 2 4 0 1 4 3 1 3 2 3 1 7 4 3 3 5 5 6 5 5 7 6 7 7 7 6
6 2 4 8 4 3 4 5 2 0 2 4 5 4 3 5 4 3 3 1 3 4 1 4 3 4 1 1 3 1 2 5 4 3 4 2 6 6 5 5 7 8 8 7 7
7 1 2 10 2 1 4 7 4 3 0 1 2 3 6 6 5 3 5 3 5 7 4 3 4 3 5 2 1 1 3 3 4 4 2 3 7 2 7 7 7 9 8 7 5
4 1 0 3 4 3 2 4 4 4 4 5 5 2 2 5 1 4 4 1 5 4 4 6 1 3 5 4 4 3 3 2 5 3 5 6 6 2 6 8 8 9 9 8 7
4 2 3 2 1 8 5 3 7 2 3 4 4 3 4 1 1 5 4 3 5 2 6 6 2 6 5 5 4 2 3 6 5 3 5 6 7 13 7 7 11 11 8 7 7
2 5 5 5 4 5 7 11 8 8 4 3 2 6 6 4 1 5 3 2 1 7 3 3 3 2 3 3 1 4 5 8 9 5 7 4 8 9 9 8 9 7 6 7 7
6 5 1 3 8 7 9 9 12 5 9 6 6 9 6 6 9 10 7 5 5 3 6 2 2 2 4 1 1 5 9 10 6 3 9 1 14 10 9 2 4 7 7 8 6
9 3 3 8 6 11 14 10 12 11 5 5 9 6 8 11 3 2 4 4 7 9 7 6 5 2 5 2 3 7 8 14 6 6 8 7 13 4 2 5 5 6 6 9 9
Wind_Direction
24 30 29 23 27 26 34 42 42 38 36 21 23 9 8 18 39 52 41 338 329 337 354 351 50 52 56 53 35 81 64 81 13 24 282 335 20 4 8 66 33 53 23 320 333
28 23 23 27 26 35 32 34 31 31 24 11 10 16 4 358 20 45 2 356 352 347 8 35 30 37 50 25 23 63 78 133 211 256 277 312 60 313 29 11 3 342 352 349 353
26 25 20 26 30 22 32 18 15 17 19 16 351 346 350 341 54 346 1 2 357 352 44 71 63 59 62 13 1 45 98 180 335 282 257 335 50 32 345 31 19 307 326 345 360
20 18 16 24 36 35 21 360 355 7 15 9 358 343 42 25 83 344 359 12 17 17 78 55 38 52 67 55 346 90 53 71 350 352 38 31 99 45 48 325 308 315 333 342 4
17 8 12 18 26 35 30 10 354 357 354 4 22 44 358 47 28 350 4 23 42 53 57 77 57 93 86 79 43 78 99 50 2 57 74 65 56 81 38 343 341 344 0 4 6
7 7 5 10 18 15 8 356 349 356 355 8 21 35 33 70 350 356 5 38 36 31 51 50 84 48 88 72 76 98 91 58 27 12 40 94 24 116 53 12 0 3 2 2 6
5 11 357 1 3 357 360 3 54 27 27 5 7 34 61 163 357 8 23 35 21 30 54 47 61 77 114 89 360 84 64 11 13 341 29 157 13 339 305 42 358 336 349 356 360
358 3 0 354 353 2 42 51 55 57 6 343 6 29 95 11 20 20 29 32 30 55 65 54 84 93 59 310 33 47 54 10 356 4 5 156 283 296 16 24 340 333 339 341 341
349 357 358 354 352 351 177 16 77 82 27 359 1 66 61 3 33 9 12 359 346 63 53 55 61 81 26 43 38 23 20 337 324 62 343 15 283 252 48 27 321 319 326 331 335
332 355 351 354 342 348 108 110 70 122 35 6 45 45 14 328 341 349 7 6 353 6 24 33 45 62 19 32 135 13 17 321 285 317 348 310 283 259 202 262 295 307 321 329 334
319 351 353 350 350 356 123 163 43 1 49 77 268 118 335 329 41 9 358 339 21 51 41 11 60 51 308 285 132 130 96 305 278 310 349 286 289 279 240 253 289 302 315 323 322
314 339 360 344 349 359 99 94 115 148 94 32 37 50 356 353 20 3 12 61 48 61 341 27 68 337 276 321 98 71 63 315 283 277 308 321 293 274 216 237 227 265 298 308 316
306 329 358 343 350 31 81 113 113 119 88 27 41 55 305 27 70 338 15 62 81 54 16 105 329 1 134 333 122 66 77 311 256 321 251 330 310 310 281 249 236 250 259 290 288
294 325 354 350 110 103 79 127 117 112 78 323 356 5 335 104 43 349 0 107 41 134 86 70 343 22 75 306 288 109 141 274 305 17 310 33 286 295 298 282 252 258 257 273 289
277 321 6 11 117 170 145 156 145 111 11 358 4 3 8 85 93 7 27 28 109 128 109 284 8 1 32 288 304 193 80 91 350 350 11 353 62 272 341 310 303 285 249 257 268
258 302 343 261 84 134 130 131 26 47 263 329 310 20 51 16 33 313 40 46 128 95 46 92 317 354 299 310 277 305 118 64 57 15 19 329 93 286 269 244 293 296 272 261 270
240 268 311 180 128 143 139 80 36 132 21 256 193 58 87 15 26 46 29 26 19 61 2 353 309 311 46 299 292 43 51 357 358 10 222 2 11 251 277 263 244 278 284 277 256
227 241 168 150 147 150 119 66 81 268 195 228 122 95 102 2 14 42 81 17 6 72 95 119 318 340 3 89 295 5 113 135 234 311 288 328 237 257 234 289 266 272 266 274 242
204 192 141 174 155 163 76 89 200 208 149 146 52 95 345 51 98 54 89 191 173 173 132 125 283 318 52 13 95 281 50 139 100 34 344 282 290 298 282 286 284 281 290 280 262
180 194 182 169 154 214 82 234 171 154 126 156 158 149 178 209 167 147 190 180 140 314 282 193 360 249 325 38 352 117 164 73 12 41 316 303 293 251 290 275 283 288 287 293 288
169 248 166 152 156 60 160 213 206 277 123 146 186 140 183 183 184 191 205 205 165 150 184 140 105 282 12 164 180 2 42 58 106 115 154 303 275 218 240 274 273 276 280 281 282
156 297 158 157 94 341 161 173 138 167 116 138 134 118 178 160 168 228 213 224 158 160 151 163 137 234 215 233 339 278 224 146 121 250 128 136 275 288 257 285 293 282 284 286 275
113 97 289 258 157 247 315 117 146 143 201 169 174 186 124 179 198 183 178 3 159 177 174 168 282 347 345 14 1 230 208 127 92 73 198 140 261 328 304 296 280 278 291 294 295
113 147 317 329 278 151 145 190 167 224 155 160 146 117 119 104 350 192 175 174 182 143 115 106 107 185 197 186 129 195 219 182 131 125 174 232 288 299 292 286 296 293 282 290 291
145 199 182 193 254 171 170 166 153 174 220 205 125 219 167 147 28 211 161 140 69 149 92 144 213 176 271 264 204 209 187 193 192 191 174 249 218 254 266 274 281 283 291 297 304
149 148 128 147 149 149 185 199 169 156 150 216 200 181 182 187 192 197 148 194 188 164 163 167 229 125 287 308 109 269 223 205 210 252 279 81 285 241 280 239 284 276 282 278 275
169 97 127 167 156 181 210 182 197 139 216 166 203 119 192 224 123 49 80 80 137 150 173 156 138 114 270 346 343 300 223 186 187 209 173 184 220 209 303 259 257 283 262 265 266